Weather History for KLHZ - April, 2013

Change the Weather History Date:

Wednesday, April 24, 2013

  Actual Average (KRDU) Record (KRDU)
Temperature  
Mean Temperature 67 °F 62 °F  
Max Temperature 77 °F 75 °F 93 °F (1960)
Min Temperature 57 °F 50 °F 31 °F (1986)
Degree Days  
Heating Degree Days 0 5  
Month to date heating degree days 167  
Since 1 July heating degree days 3163  
Cooling Degree Days 2 2  
Month to date cooling degree days 35  
Year to date cooling degree days 47  
Growing Degree Days 17 (Base 50)    
Moisture  
Dew Point 53 °F    
Average Humidity 57    
Maximum Humidity 100    
Minimum Humidity 39    
Precipitation  
Precipitation 0.00 in 0.09 in 1.55 in (1944)
Month to date precipitation 2.39  
Year to date precipitation 13.23  
Snow  
Snow 0.00 in 0.00 in T in (1955)
Month to date snowfall 0.1  
Since 1 July snowfall 6.1  
Snow Depth -    
Sea Level Pressure  
Sea Level Pressure 30.08 in    
Wind  
Wind Speed 4 mph (SSW)    
Max Wind Speed 14 mph    
Max Gust Speed 21 mph    
Visibility 9 miles    
Events      
T = Trace of Precipitation, MM = Missing Value Source: NWS Daily Summary

Daily Weather History Graph

Daily Weather History Graph

Search for Another Location

Airport or City:

Trip Planner

Search our weather history database for the weather conditions in past years. The results will help you decide how hot, cold, wet, or windy it might be!

Date:

Astronomy

Apr. 24, 2013 Rise Set
Actual Time 6:28 AM EDT 7:54 PM EDT
Civil Twilight 6:01 AM EDT 8:21 PM EDT
Nautical Twilight 5:29 AM EDT 8:54 PM EDT
Astronomical Twilight 4:55 AM EDT 9:28 PM EDT
Moon 6:57 PM EDT (4/24) 5:28 AM EDT (4/24)
Length of Visible Light 14h 20m
Length of Day
13h 26m
Waxing Gibbous, 98% of the Moon is Illuminated
Apr 24
Waxing Gibbous
Apr 25
Full
May 2
Last Quarter
May 9
New
May 18
First Quarter

Hourly Weather History & Observations

Time (EDT) Temp. Dew Point Humidity Pressure Visibility Wind Dir Wind Speed Gust Speed Precip Events Conditions
12:15 AM - - N/A% 30.14 in 10.0 mi Calm Calm - N/A   Clear
12:35 AM - - N/A% 30.14 in 10.0 mi Calm Calm - N/A   Clear
12:55 AM - - N/A% 30.15 in 7.0 mi Calm Calm - N/A   Clear
1:15 AM - - N/A% 30.15 in 10.0 mi Calm Calm - N/A   Clear
1:35 AM - - N/A% 30.15 in 10.0 mi Calm Calm - N/A   Clear
1:55 AM - - N/A% 30.14 in 10.0 mi Calm Calm - N/A   Clear
2:15 AM - - N/A% 30.13 in 10.0 mi Calm Calm - N/A   Clear
2:35 AM - - N/A% 30.13 in 10.0 mi Calm Calm - N/A   Clear
2:55 AM - - N/A% 30.13 in 10.0 mi SSW 3.5 mph - N/A   Clear
3:15 AM - - N/A% 30.12 in 10.0 mi Calm Calm - N/A   Clear
3:35 AM - - N/A% 30.12 in 10.0 mi Calm Calm - N/A   Clear
3:55 AM - - N/A% 30.12 in 10.0 mi Calm Calm - N/A   Clear
4:15 AM - - N/A% 30.12 in 7.0 mi Calm Calm - N/A   Clear
4:35 AM - - N/A% 30.12 in 5.0 mi Calm Calm - N/A   Haze
4:55 AM - - N/A% 30.12 in 7.0 mi South 3.5 mph - N/A   Clear
5:15 AM - - N/A% 30.12 in 7.0 mi Calm Calm - N/A   Clear
5:35 AM - - N/A% 30.12 in 7.0 mi South 4.6 mph - N/A   Clear
5:55 AM - - N/A% 30.13 in 7.0 mi SSW 3.5 mph - N/A   Clear
6:15 AM - - N/A% 30.13 in 7.0 mi SSW 3.5 mph - N/A   Clear
6:35 AM - - N/A% 30.13 in 7.0 mi South 4.6 mph - N/A   Clear
6:55 AM - - N/A% 30.13 in 5.0 mi South 3.5 mph - N/A   Haze
7:15 AM - - N/A% 30.15 in 5.0 mi Calm Calm - N/A   Haze
7:35 AM - - N/A% 30.16 in 7.0 mi SSW 3.5 mph - N/A   Clear
7:55 AM - - N/A% 30.16 in 7.0 mi SSW 3.5 mph - N/A   Clear
8:15 AM - - N/A% 30.16 in 10.0 mi SSW 3.5 mph - N/A   Clear
8:35 AM - - N/A% 30.16 in 10.0 mi SSW 4.6 mph - N/A   Clear
8:55 AM 57.2 °F 57.2 °F 100% 30.16 in 7.0 mi SSW 6.9 mph - N/A   Clear
9:15 AM 59.0 °F 59.0 °F 100% 30.16 in 7.0 mi SSW 5.8 mph - N/A   Clear
9:35 AM 60.8 °F 60.8 °F 100% 30.15 in 10.0 mi SSW 11.5 mph 16.1 mph N/A   Clear
9:55 AM 60.8 °F 55.4 °F 82% 30.15 in 10.0 mi South 12.7 mph 17.3 mph N/A   Clear
10:15 AM 62.6 °F 53.6 °F 72% 30.15 in 10.0 mi South 10.4 mph 17.3 mph N/A   Clear
10:35 AM 64.4 °F 53.6 °F 68% 30.14 in 10.0 mi South 8.1 mph 17.3 mph N/A   Clear
10:55 AM 64.4 °F 51.8 °F 64% 30.14 in 10.0 mi SSW 8.1 mph - N/A   Clear
11:15 AM 68.0 °F 51.8 °F 56% 30.13 in 10.0 mi South 10.4 mph 19.6 mph N/A   Clear
11:35 AM 68.0 °F 53.6 °F 60% 30.12 in 10.0 mi South 9.2 mph - N/A   Clear
11:55 AM 68.0 °F 53.6 °F 60% 30.10 in 10.0 mi South 8.1 mph - N/A   Clear
12:15 PM 69.8 °F 53.6 °F 56% 30.09 in 10.0 mi South 10.4 mph - N/A   Clear
12:35 PM 69.8 °F 51.8 °F 53% 30.08 in 10.0 mi South 11.5 mph 16.1 mph N/A   Clear
12:55 PM 71.6 °F 51.8 °F 50% 30.08 in 10.0 mi WSW 8.1 mph - N/A   Clear
1:15 PM 71.6 °F 53.6 °F 53% 30.08 in 10.0 mi South 12.7 mph 19.6 mph N/A   Clear
1:35 PM 73.4 °F 51.8 °F 47% 30.08 in 10.0 mi South 13.8 mph 18.4 mph N/A   Scattered Clouds
1:55 PM 73.4 °F 51.8 °F 47% 30.07 in 10.0 mi SSW 11.5 mph 18.4 mph N/A   Scattered Clouds
2:15 PM 73.4 °F 50.0 °F 44% 30.06 in 10.0 mi SW 6.9 mph 17.3 mph N/A   Scattered Clouds
2:35 PM 73.4 °F 51.8 °F 47% 30.06 in 10.0 mi SSW 10.4 mph 18.4 mph N/A   Clear
2:55 PM 73.4 °F 51.8 °F 47% 30.05 in 10.0 mi SW 5.8 mph 17.3 mph N/A   Scattered Clouds
3:15 PM 75.2 °F 51.8 °F 44% 30.05 in 10.0 mi South 11.5 mph 17.3 mph N/A   Scattered Clouds
3:35 PM 75.2 °F 50.0 °F 41% 30.03 in 10.0 mi SSW 10.4 mph 20.7 mph N/A   Clear
3:55 PM 75.2 °F 50.0 °F 41% 30.03 in 10.0 mi SSW 9.2 mph 16.1 mph N/A   Clear
4:15 PM 77.0 °F 50.0 °F 39% 30.02 in 10.0 mi SSW 9.2 mph 16.1 mph N/A   Clear
4:35 PM 75.2 °F 50.0 °F 41% 30.02 in 10.0 mi South 9.2 mph 17.3 mph N/A   Clear
4:55 PM 75.2 °F 50.0 °F 41% 30.01 in 10.0 mi SSW 10.4 mph 17.3 mph N/A   Clear
5:15 PM 73.4 °F 50.0 °F 44% 30.01 in 10.0 mi SSW 8.1 mph - N/A   Clear
5:35 PM 73.4 °F 50.0 °F 44% 30.00 in 10.0 mi SSW 9.2 mph - N/A   Clear
5:55 PM 73.4 °F 51.8 °F 47% 29.99 in 10.0 mi South 12.7 mph 17.3 mph N/A   Clear
6:15 PM 73.4 °F 50.0 °F 44% 29.99 in 10.0 mi SSW 6.9 mph - N/A   Clear
6:35 PM 71.6 °F 51.8 °F 50% 29.98 in 10.0 mi South 10.4 mph - N/A   Clear
6:55 PM 71.6 °F 51.8 °F 50% 29.99 in 10.0 mi SSW 8.1 mph - N/A   Clear
7:15 PM 71.6 °F 51.8 °F 50% 29.99 in 10.0 mi SSW 5.8 mph - N/A   Clear
7:35 PM 69.8 °F 51.8 °F 53% 29.99 in 10.0 mi SSW 4.6 mph - N/A   Clear
7:55 PM 69.8 °F 53.6 °F 56% 30.00 in 10.0 mi SSW 3.5 mph - N/A   Clear
8:15 PM 68.0 °F 53.6 °F 60% 30.00 in 10.0 mi SSW 3.5 mph - N/A   Clear
8:35 PM 68.0 °F 53.6 °F 60% 30.01 in 10.0 mi SSW 3.5 mph - N/A   Clear
8:55 PM 68.0 °F 53.6 °F 60% 30.01 in 10.0 mi SSW 3.5 mph - N/A   Clear
9:15 PM 68.0 °F 53.6 °F 60% 30.02 in 10.0 mi Calm Calm - N/A   Clear
9:35 PM 66.2 °F 53.6 °F 64% 30.03 in 10.0 mi SSW 3.5 mph - N/A   Clear
9:55 PM 66.2 °F 53.6 °F 64% 30.03 in 10.0 mi SSW 3.5 mph - N/A   Clear
11:15 PM 64.4 °F 53.6 °F 68% 30.02 in 10.0 mi South 5.8 mph - N/A   Clear
11:35 PM 64.4 °F 53.6 °F 68% 30.02 in 10.0 mi South 8.1 mph - N/A   Clear
11:55 PM 64.4 °F 55.4 °F 73% 30.02 in 10.0 mi SSW 6.9 mph - N/A   Clear